Weather History for Hong Kong, HK

Change the Weather History Date:

Thursday, November 22, 2012

  Actual Average Record
Temperature  
Mean Temperature 80 °F -  
Max Temperature 86 °F 70 °F 86 °F (2012)
Min Temperature 74 °F 60 °F 57 °F (2000)
Cooling Degree Days 15    
Growing Degree Days 30 (Base 50)    
Moisture  
Dew Point 72 °F    
Average Humidity 78    
Maximum Humidity 94    
Minimum Humidity 62    
Precipitation  
Precipitation 0.00 in - - ()
Sea Level Pressure  
Sea Level Pressure 29.85 in    
Wind  
Wind Speed 7 mph ()    
Max Wind Speed 13 mph    
Max Gust Speed -    
Visibility 6.2 miles    
Events Rain    
Averages and records for this station are not official NWS values.
T = Trace of Precipitation, MM = Missing Value Source: Averaged Metar Reports

Daily Weather History Graph

Daily Weather History Graph

Search for Another Location

Airport:

Trip Planner

Search our weather history database for the weather conditions in past years. The results will help you decide how hot, cold, wet, or windy it might be!

Date:

Astronomy

Nov. 22, 2012 Rise Set
Actual Time 6:41 AM HKT 5:39 PM HKT
Civil Twilight 6:17 AM HKT 6:03 PM HKT
Nautical Twilight 5:50 AM HKT 6:30 PM HKT
Astronomical Twilight 5:23 AM HKT 6:57 PM HKT
Moon 1:33 PM HKT (11/22) 1:06 AM HKT (11/22)
Length of Visible Light 11h 46m
Length of Day
10h 58m
Waxing Gibbous, 66% of the Moon is Illuminated
Nov 22
Waxing Gibbous
Nov 28
Full
Dec 6
Last Quarter
Dec 13
New
Dec 20
First Quarter

Hourly Weather History & Observations

Time (HKT) Temp. Heat Index Dew Point Humidity Pressure Visibility Wind Dir Wind Speed Gust Speed Precip Events Conditions
12:00 AM 77.0 °F - 73.4 °F 89% 29.86 in 6.2 mi East 8.1 mph - N/A   Scattered Clouds
12:30 AM 77.0 °F - 71.6 °F 83% 29.86 in 6.2 mi ENE 8.1 mph - N/A   Scattered Clouds
1:00 AM 75.2 °F - 71.6 °F 89% 29.86 in 6.2 mi East 8.1 mph - N/A   Scattered Clouds
1:30 AM 75.2 °F - 71.6 °F 89% 29.86 in 6.2 mi East 6.9 mph - N/A   Scattered Clouds
2:00 AM 76 °F - 72 °F 86% 29.86 in 6 mi ENE 6.7 mph - - Rain Light Rain
2:00 AM 75.2 °F - 73.4 °F 94% 29.86 in 6.2 mi ENE 6.9 mph - N/A   Scattered Clouds
2:30 AM 75.2 °F - 73.4 °F 94% 29.83 in 6.2 mi ENE 8.1 mph - N/A   Scattered Clouds
3:00 AM 75.2 °F - 71.6 °F 89% 29.83 in 6.2 mi East 6.9 mph - N/A   Scattered Clouds
3:30 AM 75.2 °F - 71.6 °F 89% 29.83 in 6.2 mi ENE 5.8 mph - N/A   Scattered Clouds
4:00 AM 75.2 °F - 71.6 °F 89% 29.83 in 6.2 mi ENE 8.1 mph - N/A   Scattered Clouds
4:30 AM 75.2 °F - 71.6 °F 89% 29.83 in 6.2 mi East 6.9 mph - N/A Rain Light Rain
5:00 AM 75.2 °F - 73.4 °F 94% 29.83 in 6.2 mi ENE 5.8 mph - N/A   Scattered Clouds
5:30 AM 75.2 °F - 73.4 °F 94% 29.83 in 6.2 mi ENE 8.1 mph - N/A   Scattered Clouds
6:00 AM 75.2 °F - 73.4 °F 94% 29.86 in 6.2 mi East 4.6 mph - N/A   Scattered Clouds
6:30 AM 75.2 °F - 73.4 °F 94% 29.86 in 6.2 mi East 3.5 mph - N/A   Scattered Clouds
7:00 AM 77.0 °F - 73.4 °F 89% 29.86 in 6.2 mi Variable 1.2 mph - N/A   Scattered Clouds
7:30 AM 77.0 °F - 73.4 °F 89% 29.86 in 6.2 mi NNE 3.5 mph - N/A   Scattered Clouds
8:00 AM 78 °F - 73 °F 80% 29.90 in 5 mi NNE 4.5 mph - -   Partly Cloudy
8:00 AM 78.8 °F - 73.4 °F 83% 29.89 in 6.2 mi NNE 4.6 mph - N/A   Scattered Clouds
8:30 AM 78.8 °F - 73.4 °F 83% 29.89 in 6.2 mi NNE 4.6 mph - N/A   Scattered Clouds
9:00 AM 80.6 °F 85.4 °F 73.4 °F 79% 29.92 in 6.2 mi Variable 4.6 mph - N/A   Scattered Clouds
9:30 AM 80.6 °F 84.6 °F 71.6 °F 74% 29.92 in 6.2 mi SSW 10.4 mph - N/A   Scattered Clouds
10:00 AM 82.4 °F 87.2 °F 71.6 °F 70% 29.92 in 6.2 mi SSW 10.4 mph - N/A   Scattered Clouds
10:30 AM 82.4 °F 86.3 °F 69.8 °F 66% 29.89 in 6.2 mi SW 10.4 mph - N/A   Scattered Clouds
11:00 AM 82.4 °F 87.2 °F 71.6 °F 70% 29.89 in 6.2 mi SSW 10.4 mph - N/A   Scattered Clouds
11:30 AM 84.2 °F 88.4 °F 69.8 °F 62% 29.89 in 6.2 mi SW 9.2 mph - N/A   Scattered Clouds
12:00 PM 84.2 °F 88.4 °F 69.8 °F 62% 29.86 in 6.2 mi SSW 11.5 mph - N/A   Scattered Clouds
12:30 PM 86.0 °F 91.8 °F 71.6 °F 62% 29.86 in 6.2 mi SSW 11.5 mph - N/A   Scattered Clouds
1:00 PM 84.2 °F 88.4 °F 69.8 °F 62% 29.83 in 6.2 mi SW 10.4 mph - N/A   Scattered Clouds
1:30 PM 84.2 °F 88.4 °F 69.8 °F 62% 29.83 in 6.2 mi SW 10.4 mph - N/A   Scattered Clouds
2:00 PM 86.0 °F 91.8 °F 71.6 °F 62% 29.80 in 6.2 mi SW 10.4 mph - N/A   Scattered Clouds
2:30 PM 84.2 °F 88.4 °F 69.8 °F 62% 29.80 in 6.2 mi SW 9.2 mph - N/A   Scattered Clouds
3:00 PM 84.2 °F 88.4 °F 69.8 °F 62% 29.80 in 6.2 mi SW 9.2 mph - N/A   Scattered Clouds
3:30 PM 84.2 °F 89.6 °F 71.6 °F 66% 29.80 in 6.2 mi SSW 9.2 mph - N/A   Scattered Clouds
4:00 PM 84.2 °F 89.6 °F 71.6 °F 66% 29.80 in 6.2 mi SSW 9.2 mph - N/A   Scattered Clouds
4:30 PM 82.4 °F 87.2 °F 71.6 °F 70% 29.80 in 6.2 mi SSW 8.1 mph - N/A   Scattered Clouds
5:00 PM 80.6 °F 84.6 °F 71.6 °F 74% 29.80 in 6.2 mi SSW 6.9 mph - N/A   Scattered Clouds
5:30 PM 80.6 °F 85.4 °F 73.4 °F 79% 29.80 in 6.2 mi South 8.1 mph - N/A   Partly Cloudy
6:00 PM 80.6 °F 85.4 °F 73.4 °F 79% 29.80 in 6.2 mi South 10.4 mph - N/A   Partly Cloudy
6:30 PM 80.6 °F 85.4 °F 73.4 °F 79% 29.80 in 6.2 mi South 9.2 mph - N/A   Partly Cloudy
7:00 PM 80.6 °F 85.4 °F 73.4 °F 79% 29.83 in 6.2 mi South 8.1 mph - N/A   Scattered Clouds
7:30 PM 80.6 °F 85.4 °F 73.4 °F 79% 29.83 in 6.2 mi SSW 6.9 mph - N/A   Partly Cloudy
8:00 PM 80.6 °F 85.4 °F 73.4 °F 79% 29.83 in 6.2 mi South 5.8 mph - N/A   Scattered Clouds
8:30 PM 80.6 °F 85.4 °F 73.4 °F 79% 29.86 in 6.2 mi South 6.9 mph - N/A   Scattered Clouds
9:00 PM 82.4 °F 87.2 °F 71.6 °F 70% 29.86 in 6.2 mi SSW 8.1 mph - N/A   Scattered Clouds
9:30 PM 82.4 °F 87.2 °F 71.6 °F 70% 29.86 in 6.2 mi SSW 8.1 mph - N/A   Partly Cloudy
10:00 PM 82.4 °F 87.2 °F 71.6 °F 70% 29.86 in 6.2 mi SSW 6.9 mph - N/A   Partly Cloudy
10:30 PM 80.6 °F 85.4 °F 73.4 °F 79% 29.86 in 6.2 mi SSW 12.7 mph - N/A   Partly Cloudy
11:00 PM 80.6 °F 84.6 °F 71.6 °F 74% 29.86 in 6.2 mi SSW 11.5 mph - N/A   Partly Cloudy
11:30 PM 80.6 °F 85.4 °F 73.4 °F 79% 29.86 in 6.2 mi SSW 12.7 mph - N/A   Partly Cloudy